• In Hungary
  • List of Countries
  • For 7 days
  • Water Temperature
  • Satellite Maps
  • Weather Map
  • News
  • Weather Widgets
  • user-avatar
    Login

    Hourly Weather Kingston upon Thames

    Today, 11 December, Monday

    Time Temperature Precipitation Wind Pressure Humidity
    00:00 +2°C° 0 mm 2 mps 733 mmHg 94%
    01:00 +1°C° 0.1 mm 3 mps 733 mmHg 93%
    02:00 0°C° 0.1 mm 4 mps 733 mmHg 93%
    03:00 0°C° 0.1 mm 5 mps 733 mmHg 93%
    04:00 +1°C° 0.4 mm 5 mps 733 mmHg 91%
    05:00 +1°C° 0.4 mm 6 mps 733 mmHg 90%
    06:00 +1°C° 0.4 mm 6 mps 733 mmHg 89%
    07:00 0°C° 0.8 mm 7 mps 733 mmHg 88%
    08:00 0°C° 0.8 mm 8 mps 733 mmHg 86%
    09:00 0°C° 0.8 mm 8 mps 733 mmHg 85%
    10:00 0°C° 0.7 mm 8 mps 734 mmHg 85%
    11:00 0°C° 0.7 mm 8 mps 734 mmHg 85%
    12:00 0°C° 0.7 mm 8 mps 734 mmHg 85%
    13:00 0°C° 0.6 mm 8 mps 735 mmHg 85%
    14:00 0°C° 0.6 mm 7 mps 736 mmHg 85%
    15:00 0°C° 0.6 mm 7 mps 737 mmHg 85%
    16:00 0°C° 0.3 mm 7 mps 738 mmHg 85%
    17:00 0°C° 0.3 mm 7 mps 739 mmHg 84%
    18:00 -1°C° 0.3 mm 7 mps 740 mmHg 83%
    19:00 -1°C° 0 mm 6 mps 742 mmHg 82%
    20:00 -2°C° 0 mm 6 mps 743 mmHg 82%
    21:00 -1°C° 0 mm 5 mps 744 mmHg 81%
    22:00 -2°C° 0 mm 5 mps 745 mmHg 81%
    23:00 -2°C° 0 mm 5 mps 746 mmHg 82%

    Tomorrow, 12 December, Tuesday

    Time Temperature Precipitation Wind Pressure Humidity
    00:00 -3°C° 0 mm 4 mps 747 mmHg 83%
    01:00 -3°C° 0 mm 4 mps 748 mmHg 83%
    02:00 -3°C° 0 mm 4 mps 749 mmHg 82%
    03:00 -3°C° 0 mm 4 mps 750 mmHg 82%
    04:00 -2°C° 0 mm 3 mps 750 mmHg 83%
    05:00 -2°C° 0 mm 3 mps 751 mmHg 83%
    06:00 -2°C° 0 mm 3 mps 751 mmHg 83%
    07:00 -2°C° 0 mm 3 mps 752 mmHg 83%
    08:00 -2°C° 0 mm 2 mps 753 mmHg 83%
    09:00 -2°C° 0 mm 2 mps 754 mmHg 83%
    10:00 -1°C° 0 mm 2 mps 754 mmHg 83%
    11:00 +2°C° 0 mm 2 mps 754 mmHg 83%
    12:00 +2°C° 0 mm 3 mps 754 mmHg 83%
    13:00 +2°C° 0 mm 3 mps 754 mmHg 85%
    14:00 +2°C° 0 mm 3 mps 754 mmHg 87%
    15:00 +2°C° 0 mm 3 mps 754 mmHg 89%
    16:00 +2°C° 0 mm 3 mps 755 mmHg 89%
    17:00 +2°C° 0 mm 3 mps 755 mmHg 90%
    18:00 +2°C° 0 mm 3 mps 755 mmHg 90%
    19:00 +2°C° 0 mm 3 mps 755 mmHg 89%
    20:00 +3°C° 0 mm 3 mps 755 mmHg 88%
    21:00 +3°C° 0 mm 4 mps 754 mmHg 87%
    22:00 +4°C° 0.2 mm 4 mps 754 mmHg 88%
    23:00 +3°C° 0.2 mm 5 mps 753 mmHg 89%

    Day after tomorrow, 13 December, Wednesday

    Time Temperature Precipitation Wind Pressure Humidity
    00:00 +4°C° 0.2 mm 6 mps 752 mmHg 90%
    01:00 +4°C° 0.4 mm 6 mps 752 mmHg 91%
    02:00 +5°C° 0.4 mm 6 mps 751 mmHg 92%
    03:00 +5°C° 0.4 mm 7 mps 750 mmHg 93%
    04:00 +5°C° 0.5 mm 6 mps 750 mmHg 92%
    05:00 +4°C° 0.5 mm 6 mps 749 mmHg 92%
    06:00 +4°C° 0.5 mm 6 mps 749 mmHg 91%
    07:00 +4°C° 0.1 mm 6 mps 749 mmHg 90%
    08:00 +5°C° 0.1 mm 5 mps 750 mmHg 89%
    09:00 +3°C° 0.1 mm 5 mps 750 mmHg 88%
    10:00 +5°C° 0 mm 5 mps 749 mmHg 86%
    11:00 +5°C° 0 mm 6 mps 749 mmHg 85%
    12:00 +7°C° 0 mm 6 mps 749 mmHg 84%
    13:00 +5°C° 0.2 mm 6 mps 749 mmHg 83%
    14:00 +5°C° 0.2 mm 7 mps 748 mmHg 81%
    15:00 +5°C° 0.2 mm 7 mps 748 mmHg 80%
    16:00 +4°C° 0 mm 6 mps 748 mmHg 79%
    17:00 +4°C° 0 mm 6 mps 748 mmHg 79%
    18:00 +3°C° 0 mm 6 mps 748 mmHg 78%
    19:00 +3°C° 0.1 mm 6 mps 749 mmHg 77%
    20:00 +3°C° 0.1 mm 6 mps 749 mmHg 75%
    21:00 +3°C° 0.1 mm 6 mps 749 mmHg 74%
    22:00 +2°C° 0 mm 6 mps 748 mmHg 74%
    23:00 +2°C° 0 mm 6 mps 748 mmHg 73%

    14 December, Thursday

    Time Temperature Precipitation Wind Pressure Humidity
    00:00 +2°C° 0 mm 6 mps 748 mmHg 73%
    01:00 +2°C° 1 mm 6 mps 747 mmHg 75%
    02:00 +2°C° 1 mm 6 mps 746 mmHg 78%
    03:00 +3°C° 1 mm 5 mps 746 mmHg 80%
    04:00 +2°C° 1.6 mm 5 mps 745 mmHg 82%
    05:00 +3°C° 1.6 mm 4 mps 744 mmHg 85%
    06:00 +3°C° 1.6 mm 4 mps 743 mmHg 87%
    07:00 +3°C° 0.2 mm 4 mps 742 mmHg 85%
    08:00 +2°C° 0.2 mm 5 mps 742 mmHg 83%
    09:00 +2°C° 0.2 mm 6 mps 742 mmHg 80%
    10:00 +2°C° 0 mm 6 mps 742 mmHg 76%
    11:00 +2°C° 0 mm 6 mps 743 mmHg 72%
    12:00 +3°C° 0 mm 6 mps 743 mmHg 68%
    13:00 +2°C° 0 mm 6 mps 743 mmHg 69%
    14:00 +2°C° 0 mm 6 mps 743 mmHg 70%
    15:00 +2°C° 0 mm 5 mps 743 mmHg 71%
    16:00 +2°C° 0 mm 5 mps 743 mmHg 73%
    17:00 +1°C° 0 mm 5 mps 744 mmHg 75%
    18:00 +1°C° 0 mm 5 mps 744 mmHg 77%
    19:00 +1°C° 0 mm 5 mps 744 mmHg 77%
    20:00 +1°C° 0 mm 5 mps 744 mmHg 77%
    21:00 +1°C° 0 mm 5 mps 744 mmHg 78%
    22:00 +1°C° 0.1 mm 5 mps 744 mmHg 79%
    23:00 +1°C° 0.1 mm 4 mps 744 mmHg 80%

    15 December, Friday

    Time Temperature Precipitation Wind Pressure Humidity
    00:00 +1°C° 0.1 mm 3 mps 744 mmHg 81%
    01:00 +1°C° 0.1 mm 3 mps 744 mmHg 83%
    02:00 +2°C° 0.1 mm 2 mps 744 mmHg 85%
    03:00 +3°C° 0.1 mm 1 mps 744 mmHg 87%
    04:00 +2°C° 0 mm 2 mps 744 mmHg 87%
    05:00 +1°C° 0 mm 2 mps 744 mmHg 88%
    06:00 +1°C° 0 mm 2 mps 745 mmHg 89%
    07:00 +1°C° 0 mm 2 mps 745 mmHg 88%
    08:00 0°C° 0 mm 3 mps 746 mmHg 86%
    09:00 0°C° 0 mm 3 mps 747 mmHg 85%
    10:00 +1°C° 0 mm 3 mps 747 mmHg 82%
    11:00 +1°C° 0 mm 4 mps 748 mmHg 79%
    12:00 +3°C° 0 mm 4 mps 748 mmHg 76%
    13:00 +3°C° 0 mm 4 mps 749 mmHg 78%
    14:00 +3°C° 0 mm 4 mps 749 mmHg 80%
    15:00 +3°C° 0 mm 4 mps 750 mmHg 82%
    16:00 +1°C° 0 mm 4 mps 751 mmHg 83%
    17:00 +1°C° 0 mm 4 mps 752 mmHg 84%
    18:00 0°C° 0 mm 5 mps 753 mmHg 85%
    19:00 0°C° 0 mm 5 mps 754 mmHg 86%
    20:00 0°C° 0 mm 5 mps 755 mmHg 86%
    21:00 -1°C° 0 mm 5 mps 755 mmHg 86%
    22:00 -1°C° 0 mm 4 mps 756 mmHg 85%
    23:00 -1°C° 0 mm 4 mps 757 mmHg 84%

    16 December, Saturday

    Time Temperature Precipitation Wind Pressure Humidity
    00:00 -1°C° 0 mm 4 mps 757 mmHg 84%
    01:00 -2°C° 0 mm 4 mps 757 mmHg 83%
    02:00 -2°C° 0 mm 4 mps 758 mmHg 83%
    03:00 -1°C° 0 mm 3 mps 758 mmHg 83%
    04:00 -1°C° 0 mm 3 mps 758 mmHg 82%
    05:00 -1°C° 0 mm 3 mps 759 mmHg 82%
    06:00 -1°C° 0 mm 3 mps 759 mmHg 82%
    07:00 -1°C° 0 mm 3 mps 759 mmHg 82%
    08:00 -1°C° 0 mm 3 mps 760 mmHg 83%
    09:00 0°C° 0 mm 3 mps 760 mmHg 84%
    10:00 +1°C° 0 mm 3 mps 760 mmHg 81%
    11:00 +1°C° 0 mm 4 mps 760 mmHg 79%
    12:00 +3°C° 0 mm 4 mps 760 mmHg 77%
    13:00 +3°C° 0 mm 3 mps 760 mmHg 79%
    14:00 +3°C° 0 mm 3 mps 760 mmHg 81%
    15:00 +3°C° 0 mm 3 mps 760 mmHg 83%
    16:00 +3°C° 0 mm 3 mps 760 mmHg 83%
    17:00 +3°C° 0 mm 4 mps 759 mmHg 84%
    18:00 +3°C° 0 mm 4 mps 759 mmHg 84%
    19:00 +3°C° 0.2 mm 4 mps 759 mmHg 83%
    20:00 +2°C° 0.2 mm 5 mps 758 mmHg 82%
    21:00 +3°C° 0.2 mm 5 mps 757 mmHg 81%
    22:00 +3°C° 0.8 mm 6 mps 756 mmHg 83%
    23:00 +4°C° 0.8 mm 7 mps 755 mmHg 85%
    Show more